GFSSE_925_spd_000.txt.gz
Wind_Speed
11 15 14 12 13 13 14 15 15 16 16 14 14 13 15 16 14 13 12 11 11 9 9 9 9 7 7 7 7 6 5 4 2 4 6 7 6 8 10 10 10 11 13
17 13 12 12 11 11 11 13 13 16 16 15 15 15 14 16 17 14 13 12 12 12 11 10 9 8 5 6 6 6 6 2 4 4 5 7 7 9 11 8 12 12 14
11 19 14 12 11 11 12 14 14 16 17 17 17 17 17 16 17 17 14 14 12 13 12 11 10 9 6 3 5 6 5 5 2 2 7 6 7 9 9 9 12 13 13
16 14 12 12 12 13 14 17 18 18 19 19 19 18 17 17 17 17 16 14 12 12 13 10 11 10 6 4 4 4 5 5 4 7 5 4 7 6 6 8 9 10 6
15 13 12 11 12 12 14 17 18 19 19 19 18 18 18 18 17 18 17 16 14 13 12 11 10 8 4 5 4 2 4 6 8 5 2 5 5 6 8 7 9 5 1
13 14 14 15 16 15 16 17 19 19 19 20 20 20 21 19 19 19 19 18 16 15 14 12 10 7 5 5 5 5 3 2 6 4 3 2 3 5 6 7 6 4 3
12 13 17 16 16 16 18 17 19 19 21 21 21 20 20 22 20 19 18 19 17 15 13 12 10 8 6 5 7 9 8 5 3 3 6 7 6 7 6 5 5 3 5
11 14 18 18 17 18 18 18 18 19 20 21 19 18 14 16 19 17 19 21 18 17 17 13 11 8 5 5 7 12 12 8 5 6 3 4 6 6 6 6 6 5 5
13 13 14 14 16 17 19 17 19 19 18 18 17 15 16 12 14 16 16 21 20 20 19 17 14 10 6 6 9 13 17 14 10 7 4 5 12 10 7 10 7 6 4
12 13 13 12 13 15 15 16 15 16 16 15 15 13 15 11 13 14 16 17 18 19 19 17 18 16 11 8 8 13 16 15 12 13 12 12 11 10 11 13 9 6 6
13 13 11 13 10 11 11 12 13 12 13 14 16 15 14 14 15 16 14 17 15 16 17 14 17 16 14 8 8 11 14 15 12 10 12 17 20 16 15 15 12 9 6
10 11 11 11 10 9 9 10 11 10 13 13 15 17 15 15 14 16 14 16 15 15 14 14 16 13 12 11 10 11 15 16 14 15 17 21 22 20 18 19 17 13 8
11 10 11 9 11 9 10 9 10 11 13 13 15 16 15 14 16 16 17 17 17 16 15 17 16 14 16 13 14 12 16 17 18 16 18 21 26 21 17 23 21 18 11
10 10 9 9 9 10 9 10 9 10 11 13 13 16 16 18 18 19 18 20 20 20 19 19 19 18 17 17 15 14 17 18 19 20 23 23 25 20 19 22 23 22 14
11 9 9 8 8 8 8 7 8 9 10 11 13 14 15 17 17 18 18 18 19 19 21 22 20 22 22 21 19 17 15 16 19 22 22 18 26 23 19 22 22 20 20
9 8 7 6 6 4 4 5 5 9 9 10 11 12 13 15 15 16 16 16 16 18 18 19 21 24 25 24 24 20 18 21 24 21 25 28 24 22 19 22 25 22 20
9 8 5 5 4 2 3 5 6 7 8 9 9 10 12 13 13 14 14 14 15 16 16 18 19 20 24 25 25 25 24 23 25 26 26 28 23 27 24 24 25 25 23
10 9 6 4 3 1 3 4 4 6 8 8 9 10 12 13 13 14 13 13 15 15 15 16 19 22 22 24 27 27 28 27 29 33 31 29 30 25 28 27 29 27 27
10 9 7 5 3 1 1 2 3 5 7 7 8 9 11 12 13 14 14 14 16 16 17 18 19 20 23 25 27 29 32 29 26 33 37 35 38 26 29 31 33 33 30
12 11 9 7 4 2 1 2 3 5 6 8 8 8 12 11 13 14 14 14 16 17 17 19 20 20 19 24 25 26 30 32 30 28 35 39 37 34 28 33 35 37 30
13 12 11 9 6 3 2 2 3 6 8 8 9 8 11 12 14 15 16 16 16 16 18 18 20 23 21 18 23 24 26 32 38 33 31 33 36 33 33 27 36 38 38
17 16 12 10 8 5 3 2 3 6 9 9 8 10 10 11 15 15 16 16 17 19 18 19 20 22 21 21 17 20 7 19 28 28 31 33 32 33 32 34 31 37 41
19 18 14 11 9 7 4 3 3 6 7 9 9 11 10 14 14 16 16 17 18 18 21 20 21 21 22 22 19 13 5 7 20 40 36 34 33 36 33 33 32 36 39
22 17 17 13 11 9 7 5 3 6 8 9 11 12 13 15 16 14 16 18 18 20 19 21 21 24 25 22 24 20 17 22 12 14 31 30 31 35 35 34 37 33 39
23 21 17 14 13 11 8 5 6 7 8 10 11 13 15 15 14 17 18 19 20 21 22 22 23 25 28 28 25 21 19 22 26 17 14 20 26 33 38 37 36 40 39
24 23 20 18 14 12 8 8 9 9 10 10 12 15 14 15 17 18 19 20 21 24 25 24 28 27 28 29 28 26 21 14 22 20 12 16 15 35 37 38 38 37 42

GFSSE_925_spd_003.txt.gz
Wind_Speed
9 13 12 12 12 12 12 14 15 16 15 17 17 16 18 18 16 15 14 13 12 11 10 9 9 8 8 10 9 9 7 6 6 6 6 8 10 13 13 12 13 13 12
12 12 12 11 10 10 12 13 16 17 16 18 18 17 16 17 17 15 14 12 11 11 9 8 7 8 7 6 8 8 7 7 9 7 8 9 9 12 12 12 14 14 15
13 10 14 13 13 12 13 14 17 18 19 18 18 17 15 16 15 15 14 12 11 12 11 8 8 6 4 4 6 7 7 7 8 8 11 10 10 10 9 12 14 15 10
12 13 13 12 13 13 15 17 19 19 19 19 19 18 17 17 17 16 16 14 13 12 10 9 8 6 3 2 3 5 5 6 8 12 10 8 10 8 9 11 10 8 8
16 14 15 13 13 15 17 17 18 18 19 19 22 22 20 19 18 18 17 15 13 12 12 10 8 4 2 2 2 4 5 7 10 8 10 10 8 8 9 13 11 7 4
16 13 15 15 15 16 18 19 20 20 20 20 20 21 21 21 19 18 20 17 15 13 11 10 8 5 2 2 4 4 4 7 11 8 7 9 9 8 10 8 7 6 4
18 16 15 15 16 17 18 18 19 20 20 19 18 16 16 16 19 18 21 20 17 16 14 11 8 5 4 4 5 7 7 8 9 6 7 6 9 10 12 10 7 5 4
17 17 17 15 16 16 17 18 18 17 16 15 15 17 12 15 14 13 17 18 18 19 17 16 11 7 4 5 7 9 12 13 10 7 6 8 8 9 12 11 8 7 9
15 13 16 16 16 16 15 17 17 15 13 11 10 11 13 11 11 12 13 14 16 17 18 17 15 13 8 7 7 11 14 15 11 9 7 11 12 8 13 12 9 10 10
16 13 13 13 14 13 16 13 14 12 10 11 12 9 9 10 11 11 14 14 13 16 14 14 16 15 14 9 9 11 14 15 15 14 17 12 13 14 17 18 13 12 11
13 13 15 14 15 13 12 10 8 9 10 11 12 11 9 10 9 10 12 12 15 17 12 14 15 13 17 14 9 10 12 15 16 17 17 21 19 14 15 16 15 15 14
12 10 10 11 10 10 9 5 7 8 9 9 12 10 10 9 10 7 9 10 11 15 11 12 10 11 15 17 16 13 13 17 18 19 13 15 14 12 11 19 16 16 15
12 10 9 10 9 7 6 5 6 7 8 8 11 12 12 11 12 13 11 11 12 13 12 12 11 11 13 18 16 19 15 16 19 20 18 16 15 16 14 20 20 20 16
15 12 11 11 10 9 6 4 6 6 8 10 11 11 13 13 14 15 14 14 14 15 15 15 15 14 14 16 18 16 20 20 18 20 22 20 18 19 19 20 22 20 19
18 15 13 10 9 8 7 4 5 7 8 9 10 11 13 14 15 14 15 15 16 17 17 19 19 19 19 19 19 19 18 18 19 19 21 23 26 25 24 21 22 23 22
20 18 14 11 8 7 5 4 4 6 6 7 8 9 12 13 14 14 14 14 15 18 17 16 17 19 19 21 22 23 21 19 20 23 24 25 21 22 25 23 24 25 23
22 19 16 12 9 6 5 5 4 4 4 6 6 7 10 11 11 11 11 11 14 15 15 16 16 18 18 20 22 24 28 28 26 24 28 28 26 26 28 27 25 26 26
23 20 16 13 10 7 6 6 4 1 3 3 4 5 7 8 10 10 10 9 11 13 13 15 19 20 22 22 24 23 25 28 31 31 29 29 31 29 30 32 29 29 28
21 20 17 14 12 9 7 6 3 1 1 2 4 5 7 6 8 10 10 10 12 13 12 15 14 17 20 21 22 21 26 29 30 30 28 28 30 30 35 35 35 33 31
19 18 15 15 12 10 9 6 4 2 1 3 4 4 8 7 8 10 10 10 11 12 14 13 16 15 18 21 23 22 22 24 31 33 28 33 35 31 33 37 36 38 35
22 20 17 16 14 13 11 8 5 3 2 4 3 4 8 7 9 9 10 11 10 12 13 15 17 17 19 22 24 23 25 19 21 28 23 32 33 28 32 34 39 38 38
25 22 20 19 16 13 11 8 5 4 3 3 5 5 7 7 10 10 11 10 12 14 13 15 16 19 19 20 23 21 8 22 9 29 36 35 36 36 34 30 37 40 38
28 25 22 21 19 15 11 9 7 5 5 5 5 7 6 7 10 11 10 10 13 13 16 14 15 18 19 21 20 12 8 8 22 24 33 32 29 31 32 30 27 38 41
32 26 25 21 21 17 14 12 10 7 6 5 7 7 7 8 9 7 10 13 13 15 16 17 18 18 16 22 28 21 21 22 10 15 23 31 30 27 26 26 31 27 41
33 30 27 26 21 19 16 15 12 9 8 8 9 9 9 9 8 10 12 14 15 16 16 21 21 19 24 26 23 25 18 23 22 10 12 21 32 28 29 26 34 37 27
34 32 27 27 23 22 21 17 13 12 12 11 11 11 11 8 9 13 13 15 16 20 20 18 25 26 25 25 27 29 27 19 20 13 10 16 21 35 28 28 29 34 41

GFSSE_925_spd_006.txt.gz
Wind_Speed
9 8 8 10 11 10 10 11 12 14 14 14 13 13 14 14 13 13 12 12 11 10 8 7 6 5 6 8 8 7 6 6 9 8 9 12 12 13 14 15 14 14 13
12 8 7 7 9 10 10 12 13 15 15 15 14 13 13 13 13 12 12 11 12 10 8 8 6 4 4 6 7 7 7 8 9 10 11 11 12 13 13 15 15 15 15
11 10 10 10 11 11 12 13 15 15 16 15 14 14 13 13 13 12 12 11 10 9 9 7 6 3 2 4 5 6 8 8 8 11 13 13 13 13 13 13 17 15 13
11 11 10 10 11 13 14 15 15 15 16 16 16 15 15 15 15 14 12 11 10 9 8 7 6 4 1 1 3 5 6 8 10 12 12 12 13 13 14 14 14 12 12
15 12 12 12 14 15 16 15 16 17 18 18 17 16 15 16 15 16 14 13 12 10 9 7 5 3 1 1 2 3 4 8 12 8 9 11 12 12 14 15 13 12 10
16 14 14 14 14 16 17 17 16 16 15 14 13 12 15 15 14 17 17 15 15 13 10 8 6 3 1 2 3 4 2 8 9 5 8 12 11 13 15 13 12 11 12
16 14 15 15 15 17 16 17 16 16 14 14 13 12 13 13 12 13 15 14 16 15 14 13 9 7 3 2 4 5 4 7 9 5 8 12 12 13 15 15 12 11 11
17 15 14 14 15 16 16 16 13 12 11 11 12 11 9 11 12 11 15 14 14 14 15 14 13 11 7 4 2 5 7 8 8 8 7 10 16 15 16 15 14 12 12
16 17 16 15 15 16 15 14 9 9 8 8 7 7 7 8 8 9 12 15 15 15 16 15 12 14 14 7 4 4 8 9 11 9 6 9 13 15 16 15 11 11 12
17 18 17 17 17 16 13 10 8 7 7 8 7 7 7 7 7 9 10 13 14 14 15 14 14 12 15 13 10 7 7 8 12 14 12 10 14 13 15 17 13 14 12
19 18 16 15 15 13 12 8 5 5 6 7 8 8 7 7 7 8 9 9 14 10 11 11 11 10 12 11 9 9 6 9 10 12 16 16 20 17 12 14 15 15 13
20 19 19 17 16 14 10 7 4 4 5 7 9 9 8 8 8 8 8 8 8 10 10 11 11 11 12 14 13 11 10 11 14 15 15 14 12 17 17 15 17 15 13
20 18 17 17 16 13 10 8 5 4 5 6 8 9 9 9 10 10 10 10 11 12 12 12 12 12 13 14 14 16 16 14 16 18 17 15 14 14 16 15 20 18 14
21 19 18 16 16 14 11 9 7 5 6 6 7 8 9 10 10 11 12 13 14 15 15 16 16 15 14 14 15 15 16 17 17 16 19 19 17 18 19 19 19 19 18
24 22 20 18 16 15 13 10 9 8 7 6 5 7 8 9 10 10 11 12 14 15 16 16 17 18 18 18 18 19 19 19 19 20 19 18 20 21 22 23 21 20 21
28 26 23 20 18 16 13 11 10 8 8 6 4 5 7 7 8 9 9 11 12 14 14 15 17 18 18 19 20 20 20 20 21 21 22 22 20 21 23 22 24 23 22
31 28 26 22 19 16 13 12 10 8 7 5 3 3 4 5 7 7 7 8 10 12 12 15 15 17 18 20 21 21 23 24 24 24 25 24 25 24 24 25 26 27 25
31 31 27 23 21 17 15 13 10 7 6 5 3 1 2 2 4 5 5 6 8 11 11 15 16 18 19 20 22 20 24 25 26 28 28 27 28 28 28 26 27 28 27
33 32 28 24 22 18 16 13 10 8 6 5 2 2 1 0 1 3 3 4 6 7 8 9 12 13 16 17 19 20 17 24 25 24 29 28 25 28 28 28 27 28 32
34 31 28 25 22 19 17 15 11 9 7 5 3 2 1 1 1 2 4 5 5 6 8 7 11 10 14 14 17 17 15 17 12 27 23 30 35 36 36 32 29 28 32
34 32 29 27 25 23 22 17 12 11 9 7 5 5 3 3 1 4 5 6 6 7 8 8 10 11 15 15 16 21 13 2 23 11 26 32 38 37 34 33 32 30 29
36 34 31 29 28 26 22 18 10 12 9 7 8 7 6 5 4 6 7 8 6 9 8 11 11 11 14 15 12 12 5 15 7 26 21 25 32 35 36 32 28 32 30
40 38 34 32 30 27 22 17 13 10 8 9 9 9 7 6 5 7 8 5 8 8 10 12 12 13 17 14 16 9 4 4 23 19 24 27 30 35 31 29 29 31 35
40 41 37 33 32 29 24 20 18 15 12 11 10 9 7 6 6 6 4 7 8 10 11 11 15 15 14 18 21 17 14 18 7 13 30 27 30 28 29 28 30 32 36
39 44 39 35 35 31 27 22 20 17 13 10 10 9 8 7 8 7 7 9 9 10 12 15 12 19 19 20 19 20 20 19 19 7 12 21 31 28 30 31 33 31 33
36 41 39 37 37 33 29 25 22 19 15 14 13 12 10 10 9 8 10 9 12 11 14 13 20 19 20 21 21 24 24 17 15 10 8 16 20 37 35 33 31 30 29

GFSSE_925_spd_009.txt.gz
Wind_Speed
8 9 8 6 5 7 8 9 10 10 10 11 11 11 11 10 10 9 9 10 9 8 7 6 5 4 6 6 6 4 4 5 5 6 8 9 9 10 10 12 12 13 13
12 10 8 6 6 7 10 11 11 11 11 11 11 11 10 10 11 10 9 9 10 8 7 6 5 4 5 5 5 4 5 6 6 7 8 9 11 10 11 12 12 13 14
13 10 9 8 7 9 11 12 12 12 11 12 11 11 12 12 12 11 10 9 9 8 7 6 5 3 3 4 5 5 5 5 5 7 8 10 11 10 11 12 13 13 12
12 11 10 9 10 12 13 13 12 12 12 13 13 13 13 14 13 12 11 10 9 8 7 7 5 4 2 2 4 3 4 4 5 7 7 9 10 10 11 13 13 11 11
13 11 11 11 12 14 14 14 13 14 13 13 14 13 13 14 15 14 13 13 11 10 8 7 6 4 2 1 2 4 2 4 7 6 6 8 8 10 12 13 10 11 11
14 13 13 13 14 15 15 15 14 13 11 10 11 11 12 10 13 13 12 14 14 13 13 10 8 5 3 1 1 2 2 5 7 4 6 8 9 9 12 13 11 10 9
16 15 15 14 15 15 15 15 14 12 12 13 13 10 12 13 12 13 12 12 12 13 13 13 12 8 4 2 1 3 3 5 6 1 4 9 11 10 11 13 11 9 9
18 17 15 15 16 15 14 13 12 10 9 9 9 7 8 9 11 11 12 12 14 15 15 13 14 14 12 4 1 3 4 5 6 6 4 7 13 13 12 12 10 9 9
17 18 17 16 15 16 13 12 10 8 6 4 4 4 4 5 6 8 13 12 13 14 15 13 13 12 11 11 8 2 4 4 7 8 7 8 10 13 14 12 11 10 9
18 18 18 18 18 15 13 10 8 5 4 4 4 4 4 4 5 5 7 13 12 13 11 10 9 9 11 10 7 6 2 3 7 9 12 11 11 12 11 12 13 10 10
20 19 19 19 18 15 13 10 6 4 4 4 5 5 4 5 5 5 7 8 11 9 9 9 8 9 11 11 10 8 5 3 7 10 10 13 13 15 17 11 12 12 12
23 22 20 20 18 15 13 9 6 3 3 3 4 5 5 5 6 6 7 7 8 9 9 9 9 9 8 9 11 10 11 11 9 10 13 13 13 12 11 16 11 14 14
29 24 23 22 19 17 14 10 8 5 3 2 3 4 5 5 6 6 7 9 9 11 11 12 11 12 12 11 10 11 11 12 13 13 11 14 13 13 13 10 13 14 17
31 29 26 23 22 19 15 12 10 8 6 4 3 4 4 5 6 8 9 11 12 13 13 14 15 15 14 14 13 11 11 12 13 13 13 14 14 16 14 17 16 17 20
33 32 30 27 24 21 18 15 12 10 8 6 4 4 4 4 6 7 7 9 11 12 14 15 15 16 16 17 17 15 15 15 15 15 15 15 15 17 19 17 19 18 20
36 35 32 28 25 22 20 17 14 12 10 7 5 4 3 4 5 6 6 7 9 11 13 15 17 17 18 18 18 18 19 18 18 18 19 18 18 18 20 21 20 21 20
39 35 33 30 27 24 21 18 15 13 11 9 6 4 3 3 4 5 5 6 8 10 11 13 16 16 18 19 19 20 20 21 21 19 21 21 22 22 25 23 21 24 22
40 36 33 30 27 25 22 19 17 14 12 10 7 5 3 2 2 3 3 4 6 8 10 11 15 16 19 19 21 22 22 19 17 24 22 22 24 24 27 28 27 26 26
42 38 34 31 29 26 22 20 17 15 13 11 8 6 4 3 2 2 2 3 4 5 9 9 12 13 17 18 19 21 26 15 17 19 21 29 28 29 29 30 31 28 28
42 38 36 32 29 26 23 21 19 16 15 13 10 8 6 4 4 3 2 1 2 3 7 7 9 11 13 16 17 18 16 6 15 11 28 22 26 29 32 31 30 31 28
39 38 38 35 32 30 29 26 22 21 18 15 13 10 9 6 5 3 2 1 2 3 5 5 8 9 11 14 11 20 6 8 5 20 19 15 24 28 33 35 32 29 29
42 42 41 39 37 35 33 30 23 23 19 16 14 12 11 8 8 5 4 3 3 4 4 5 7 8 10 14 8 10 3 6 9 28 14 19 20 24 29 33 32 34 31
42 46 48 45 41 38 34 30 21 17 12 17 16 14 14 10 9 8 6 5 3 3 4 6 6 7 8 11 13 6 3 3 19 3 22 17 19 23 29 31 35 34 37
41 46 49 47 44 40 37 34 30 25 19 19 18 15 13 11 11 8 7 5 4 5 5 5 8 6 11 14 13 10 10 15 3 7 12 18 19 21 26 28 32 36 38
38 45 50 48 45 42 41 37 32 26 20 14 16 15 14 13 11 9 9 6 7 6 7 9 8 10 12 13 14 14 14 16 14 9 10 25 26 23 26 29 31 35 38
32 37 43 47 47 45 43 38 34 29 23 19 19 17 16 14 13 12 10 8 8 9 9 9 10 14 15 17 18 18 17 13 9 11 5 17 22 27 26 29 32 32 34